Location: Br�znic
(45.9167°N, 22.6500°E)
Time: 16:01:34
(UTC+00:00)

SL-8 Rocket - Pass Details

Date: 03 March 2021
Orbit: 957 x 991 km, 82.9° (Epoch: 11 April)

Event Time Altitude Azimuth Distance (km) Brightness Sun altitude
Rises 18:05:34 0° 183° (S) 3,669 6.9 -19.3°
Reaches altitude 10° 18:08:05 10° 182° (S) 2,721 6.2 -19.7°
Maximum altitude 18:14:19 81° 96° (E) 989 3.9 -20.8°
Drops below altitude 10° 18:20:32 10° 10° (N) 2,715 6.4 -21.8°
Sets 18:23:02 0° 10° (N) 3,662 7.1 -22.2°
